When you browse on this site, cookies collect data to enhance your experience and personalize the content and advertising you see.
Visit our Privacy Policy to learn more. By continuing to use the site, you agree to this use of cookies and data.
  • In Germany
  • List of Countries
  • For 7 days
  • Water Temperature
  • Weather Map
  • Weather Widgets
  • user-avatar
    Login

    Hourly Weather Pyshminskaya

    Today, 26 February, Wednesday

    Time Temperature Precipitation Wind Pressure Humidity
    00:00 -9°C° 0 mm 4 mps 728 mmHg 93%
    01:00 -11°C° 0 mm 5 mps 728 mmHg 93%
    02:00 -9°C° 0 mm 4 mps 727 mmHg 92%
    03:00 -9°C° 0 mm 4 mps 727 mmHg 92%
    04:00 -9°C° 0 mm 4 mps 726 mmHg 92%
    05:00 -9°C° 0 mm 4 mps 725 mmHg 92%
    06:00 -10°C° 0 mm 4 mps 724 mmHg 92%
    07:00 -10°C° 0 mm 4 mps 723 mmHg 93%
    08:00 -9°C° 0 mm 4 mps 723 mmHg 92%
    09:00 -9°C° 0 mm 4 mps 722 mmHg 92%
    10:00 -9°C° 0 mm 4 mps 722 mmHg 92%
    11:00 -8°C° 0.5 mm 3 mps 721 mmHg 92%
    12:00 -7°C° 0.5 mm 3 mps 720 mmHg 92%
    13:00 -7°C° 0.5 mm 3 mps 719 mmHg 93%
    14:00 -7°C° 0.8 mm 3 mps 719 mmHg 93%
    15:00 -5°C° 0.8 mm 2 mps 719 mmHg 94%
    16:00 -5°C° 0.8 mm 2 mps 718 mmHg 95%
    17:00 -5°C° 0.6 mm 2 mps 718 mmHg 95%
    18:00 -5°C° 0.6 mm 2 mps 718 mmHg 95%
    19:00 -6°C° 0.6 mm 2 mps 718 mmHg 96%
    20:00 -6°C° 0.5 mm 2 mps 718 mmHg 96%
    21:00 -7°C° 0.5 mm 3 mps 718 mmHg 95%
    22:00 -7°C° 0.5 mm 3 mps 719 mmHg 95%
    23:00 -8°C° 0.6 mm 4 mps 719 mmHg 94%

    Tomorrow, 27 February, Thursday

    Time Temperature Precipitation Wind Pressure Humidity
    00:00 -7°C° 0.6 mm 4 mps 720 mmHg 94%
    01:00 -7°C° 0.6 mm 5 mps 720 mmHg 93%
    02:00 -7°C° 0.1 mm 5 mps 721 mmHg 91%
    03:00 -6°C° 0.1 mm 6 mps 722 mmHg 88%
    04:00 -5°C° 0.1 mm 6 mps 723 mmHg 85%
    05:00 -8°C° 0 mm 6 mps 724 mmHg 86%
    06:00 -9°C° 0 mm 6 mps 725 mmHg 86%
    07:00 -10°C° 0 mm 6 mps 726 mmHg 87%
    08:00 -10°C° 0 mm 5 mps 727 mmHg 85%
    09:00 -10°C° 0 mm 5 mps 727 mmHg 83%
    10:00 -8°C° 0 mm 5 mps 728 mmHg 81%
    11:00 -7°C° 0 mm 5 mps 728 mmHg 77%
    12:00 -6°C° 0 mm 5 mps 729 mmHg 73%
    13:00 -4°C° 0 mm 4 mps 729 mmHg 68%
    14:00 -3°C° 0 mm 4 mps 729 mmHg 73%
    15:00 -3°C° 0 mm 4 mps 730 mmHg 78%
    16:00 -3°C° 0 mm 4 mps 730 mmHg 83%
    17:00 -4°C° 0 mm 4 mps 730 mmHg 85%
    18:00 -4°C° 0 mm 4 mps 730 mmHg 88%
    19:00 -4°C° 0 mm 4 mps 731 mmHg 90%
    20:00 -5°C° 0 mm 3 mps 731 mmHg 90%
    21:00 -5°C° 0 mm 3 mps 731 mmHg 91%
    22:00 -5°C° 0 mm 3 mps 731 mmHg 92%
    23:00 -4°C° 0 mm 3 mps 732 mmHg 93%

    Day after tomorrow, 28 February, Friday

    Time Temperature Precipitation Wind Pressure Humidity
    00:00 -4°C° 0 mm 3 mps 732 mmHg 94%
    01:00 -3°C° 0 mm 2 mps 732 mmHg 95%
    02:00 -2°C° 0 mm 3 mps 732 mmHg 94%
    03:00 -1°C° 0 mm 3 mps 732 mmHg 92%
    04:00 -2°C° 0 mm 4 mps 733 mmHg 90%
    05:00 -1°C° 0 mm 3 mps 733 mmHg 91%
    06:00 -2°C° 0 mm 3 mps 732 mmHg 91%
    07:00 -4°C° 0 mm 3 mps 732 mmHg 92%
    08:00 -2°C° 0.1 mm 3 mps 732 mmHg 92%
    09:00 -1°C° 0.1 mm 3 mps 732 mmHg 92%
    10:00 -1°C° 0.1 mm 4 mps 733 mmHg 92%
    11:00 -1°C° 0 mm 4 mps 733 mmHg 90%
    12:00 -1°C° 0 mm 4 mps 733 mmHg 88%
    13:00 0°C° 0 mm 4 mps 733 mmHg 87%
    14:00 -1°C° 0 mm 4 mps 733 mmHg 87%
    15:00 -1°C° 0 mm 4 mps 733 mmHg 87%
    16:00 0°C° 0 mm 3 mps 734 mmHg 88%
    17:00 0°C° 0 mm 3 mps 734 mmHg 88%
    18:00 -1°C° 0 mm 3 mps 734 mmHg 89%
    19:00 -1°C° 0 mm 3 mps 735 mmHg 90%
    20:00 -1°C° 0 mm 3 mps 735 mmHg 90%
    21:00 -2°C° 0 mm 2 mps 735 mmHg 90%
    22:00 -2°C° 0 mm 2 mps 735 mmHg 90%
    23:00 -2°C° 0 mm 2 mps 735 mmHg 89%

    29 February, Saturday

    Time Temperature Precipitation Wind Pressure Humidity
    00:00 -2°C° 0 mm 2 mps 735 mmHg 88%
    01:00 -3°C° 0 mm 2 mps 735 mmHg 87%
    02:00 -2°C° 0 mm 2 mps 735 mmHg 87%
    03:00 -2°C° 0 mm 2 mps 735 mmHg 86%
    04:00 -2°C° 0 mm 2 mps 735 mmHg 85%
    05:00 -2°C° 0 mm 2 mps 735 mmHg 86%
    06:00 -3°C° 0 mm 2 mps 734 mmHg 86%
    07:00 -3°C° 0 mm 2 mps 734 mmHg 87%
    08:00 -2°C° 0 mm 3 mps 734 mmHg 84%
    09:00 -2°C° 0 mm 3 mps 733 mmHg 81%
    10:00 -2°C° 0 mm 4 mps 733 mmHg 78%
    11:00 -1°C° 0 mm 4 mps 733 mmHg 74%
    12:00 -1°C° 0 mm 4 mps 733 mmHg 70%
    13:00 0°C° 0 mm 5 mps 733 mmHg 65%
    14:00 -1°C° 0 mm 5 mps 732 mmHg 67%
    15:00 -2°C° 0 mm 5 mps 732 mmHg 68%
    16:00 -4°C° 0 mm 5 mps 731 mmHg 70%
    17:00 -5°C° 0 mm 5 mps 731 mmHg 75%
    18:00 -6°C° 0 mm 5 mps 731 mmHg 80%
    19:00 -7°C° 0 mm 4 mps 730 mmHg 85%
    20:00 -7°C° 0 mm 4 mps 730 mmHg 86%
    21:00 -6°C° 0 mm 3 mps 730 mmHg 87%
    22:00 -7°C° 0 mm 3 mps 730 mmHg 88%
    23:00 -7°C° 0 mm 3 mps 731 mmHg 89%

    1 March, Sunday

    Time Temperature Precipitation Wind Pressure Humidity
    00:00 -7°C° 0 mm 3 mps 731 mmHg 90%
    01:00 -7°C° 0 mm 3 mps 731 mmHg 90%
    02:00 -7°C° 0 mm 3 mps 731 mmHg 91%
    03:00 -7°C° 0 mm 3 mps 731 mmHg 91%
    04:00 -8°C° 0 mm 3 mps 732 mmHg 91%
    05:00 -7°C° 0 mm 2 mps 732 mmHg 92%
    06:00 -7°C° 0 mm 2 mps 732 mmHg 93%
    07:00 -7°C° 0 mm 2 mps 732 mmHg 94%
    08:00 -6°C° 0 mm 2 mps 733 mmHg 92%
    09:00 -4°C° 0 mm 2 mps 733 mmHg 90%
    10:00 -4°C° 0 mm 3 mps 734 mmHg 87%
    11:00 -2°C° 0 mm 3 mps 734 mmHg 87%
    12:00 -2°C° 0 mm 2 mps 734 mmHg 86%
    13:00 -2°C° 0 mm 2 mps 735 mmHg 85%
    14:00 -2°C° 0 mm 2 mps 735 mmHg 86%
    15:00 -2°C° 0 mm 2 mps 735 mmHg 87%
    16:00 0°C° 0 mm 1 mps 735 mmHg 88%
    17:00 0°C° 0 mm 1 mps 735 mmHg 90%
    18:00 -1°C° 0 mm 1 mps 736 mmHg 92%
    19:00 -1°C° 0 mm 1 mps 736 mmHg 94%
    20:00 -2°C° 0 mm 1 mps 736 mmHg 94%
    21:00 -3°C° 0 mm 1 mps 736 mmHg 94%
    22:00 -3°C° 0 mm 1 mps 736 mmHg 94%
    23:00 -4°C° 0 mm 1 mps 736 mmHg 94%

    2 March, Monday

    Time Temperature Precipitation Wind Pressure Humidity
    00:00 -4°C° 0 mm 1 mps 736 mmHg 94%
    01:00 -6°C° 0 mm 1 mps 737 mmHg 94%
    02:00 -6°C° 0 mm 1 mps 737 mmHg 94%
    03:00 -7°C° 0 mm 1 mps 737 mmHg 94%
    04:00 -7°C° 0 mm 1 mps 737 mmHg 94%
    05:00 -7°C° 0 mm 1 mps 737 mmHg 94%
    06:00 -7°C° 0 mm 1 mps 738 mmHg 94%
    07:00 -8°C° 0 mm 1 mps 738 mmHg 94%
    08:00 -6°C° 0 mm 1 mps 738 mmHg 90%
    09:00 -3°C° 0 mm 1 mps 738 mmHg 86%
    10:00 -1°C° 0 mm 1 mps 739 mmHg 82%
    11:00 0°C° 0 mm 1 mps 739 mmHg 80%
    12:00 0°C° 0 mm 1 mps 739 mmHg 78%
    13:00 +1°C° 0 mm 1 mps 739 mmHg 76%
    14:00 +1°C° 0 mm 1 mps 739 mmHg 79%
    15:00 +1°C° 0 mm 1 mps 739 mmHg 81%
    16:00 +1°C° 0 mm 1 mps 739 mmHg 83%
    17:00 -1°C° 0 mm 0 mps 739 mmHg 85%
    18:00 -3°C° 0 mm 0 mps 740 mmHg 87%
    19:00 -4°C° 0 mm 0 mps 740 mmHg 90%
    20:00 -5°C° 0 mm 0 mps 740 mmHg 90%
    21:00 -5°C° 0 mm 0 mps 740 mmHg 90%
    22:00 -5°C° 0 mm 0 mps 740 mmHg 90%
    23:00 -5°C° 0 mm 0 mps 740 mmHg 90%
    Show more